Flag for Australia Weather past 2 weeks in Cobar, New South Wales, Australia

Now
55 °F

Low clouds.


Feels Like: 54 °F
Forecast: 49 / 56 °F
Wind: 6 mph from South

Location: Cobar

Current Time: May 30, 2015 at 7:33:55 PM

Latest Report: May 30, 2015 at 6:00 PM


Visibility: 3 mi

Pressure: 30.13 "Hg

Humidity: 98%

Dew point: 54 °F

Location of CobarLocation

Historic Weather in Cobar — Graph

°F

Cobar temperature yesterday

Maximum temperature yesterday: 64 °F (at 3:00 PM)
Minimum temperature yesterday: 58 °F (at 6:00 AM)
Average temperature yesterday: 60 °F

Past Weeks' High & Low Weather Summary

 TemperatureHumidityPressure
High73 °F (May 18, 2:00 PM)99% (May 21, 5:00 AM)30.50 "Hg (May 21, 5:00 AM)
Low43 °F (May 23, 6:00 AM)33% (May 16, 3:00 PM)29.91 "Hg (May 19, 5:00 PM)
Average58 °F73%30.25 "Hg
* Reported May 15 6:00 PM — May 30 6:00 PM, Cobar, Weather by CustomWeather, © 2015

Note: Actual official high and low records may vary slightly from our data, if they occured in-between our weather recording intervals... More about our weather records

Advertising

Cobar weather history for previous 24 hours

 ConditionsComfort  
Time TempWeatherWind HumidityBarometerVisibility
6:00 PM
Sat, May 30
55 °FLow clouds.6 mph98%30.13 "Hg3 mi
5:00 PM56 °FCool.6 mph97%30.12 "HgN/A
3:00 PM57 °FDrizzle. Low clouds.6 mph97%30.12 "Hg1 mi
2:00 PM57 °FCool.5 mph96%30.13 "HgN/A
12:00 PM57 °FLow clouds.5 mph91%30.16 "Hg3 mi
11:00 AM58 °FCool.5 mph86%30.19 "HgN/A
9:00 AM57 °FOvercast.7 mph82%30.21 "Hg19 mi
8:00 AM57 °FCool.6 mph83%30.20 "HgN/A
6:00 AM57 °FOvercast.6 mph84%30.18 "HgN/A
5:00 AM57 °FCool.6 mph84%30.17 "HgN/A
3:00 AM58 °FOvercast.3 mph89%30.20 "HgN/A
2:00 AM58 °FCool.5 mph89%30.20 "HgN/A
12:00 AM58 °FOvercast.No wind94%30.22 "Hg6 mi
11:00 PM
Fri, May 29
59 °FCool.2 mph88%30.23 "HgN/A
9:00 PM59 °FOvercast.No wind91%30.22 "HgN/A
8:00 PM60 °FCool.No wind88%30.22 "HgN/A
Weather by CustomWeather, © 2015

See weather overviewHow to use our weather pages